Regional Weather Roundup
Issued by NWS

Home | Current Version | Previous Version | Text Only | Print | Product List | Glossary Off
Versions: 1 2 3 4 5 6 7 8 9 10 11 12 13 14 15 16 17 18 19 20 21 22 23 24 25 26 27 28 29 30 31 32 33 34 35 36 37 38 39 40 41 42 43 44 45 46 47 48 49 50

000
ASUS43 KBIS 250310
RWRND

NORTH DAKOTA REGIONAL WEATHER ROUNDUP
NATIONAL WEATHER SERVICE BISMARCK ND
1000 PM CDT SUN MAY 24 2015

NOTE: "FAIR" INDICATES FEW OR NO CLOUDS BELOW 12,000 FEET WITH NO
SIGNIFICANT WEATHER AND/OR OBSTRUCTIONS TO VISIBILITY.


NDZ001>003-009>011-017-250400-
NORTHWEST NORTH DAKOTA

CITY           SKY/WX    TMP DP  RH WIND       PRES   REMARKS
WILLISTON      PTCLDY    64  44  48 SE5       29.91S
MINOT          MOCLDY    60  45  57 NE5       29.90S
MINOT AFB      MOCLDY    62  44  52 E3        29.90R
$$

NDZ018>021-031>035-040>046-250400-
SOUTHWEST NORTH DAKOTA

CITY           SKY/WX    TMP DP  RH WIND       PRES   REMARKS
BISMARCK       CLOUDY    62  53  72 E14       29.90R
DICKINSON      CLOUDY    57  48  72 NE6       29.90S
GARRISON         N/A     63  49  60 NE3       29.90S
HETTINGER ARPT CLOUDY    57  49  74 NE10      29.91R
$$

NDZ004>008-012>016-024-026-027-054-250400-
NORTHEAST NORTH DAKOTA

CITY           SKY/WX    TMP DP  RH WIND       PRES   REMARKS
GRAND FORKS    CLOUDY    63  53  70 CALM      29.88F
GRND FRKS AFB  CLOUDY    62  51  65 CALM      29.89F
DEVILS LAKE    CLOUDY    63  48  59 E6        29.90S
$$

NDZ022-023-025-028>030-036>039-047>053-250400-
SOUTHEAST NORTH DAKOTA

CITY           SKY/WX    TMP DP  RH WIND       PRES   REMARKS
FARGO          CLOUDY    65  54  67 SE6       29.87F
JAMESTOWN      CLOUDY    58  54  86 NW5       29.88F
$$



USA.gov is the U.S. government's official web portal to all federal, state and local government web resources and services.